Wind_Speed
13 16 16 15 13 13 13 12 8 6 9 9 8 9 13 14 13 13 14 15 15 14 15 17 18 17 17 17 17 16 15 14 13 13 13 14 15 15 16 15 14 12 11 10 10 10 9 8 6
12 14 16 16 15 15 15 13 12 8 9 10 11 12 13 13 12 11 12 13 12 11 11 14 16 17 18 19 18 17 16 14 13 11 12 12 13 14 15 15 14 11 10 9 9 9 8 8 6
11 14 16 17 17 17 15 14 14 12 10 11 13 13 13 11 10 9 9 10 9 7 8 10 12 14 16 17 17 17 16 15 13 11 10 10 11 12 13 13 13 11 9 9 9 8 7 6 5
12 13 15 18 19 16 13 12 13 13 11 9 10 10 11 10 8 6 5 5 4 5 6 7 8 10 13 14 14 14 13 14 14 13 10 9 10 11 12 12 12 12 10 9 8 8 6 4 4
15 14 15 18 20 18 15 10 8 8 10 7 5 7 9 9 7 4 2 2 1 1 4 6 7 8 9 10 10 10 10 10 11 11 12 10 9 9 9 10 10 11 10 7 6 6 6 5 3
18 16 15 19 22 20 18 12 7 6 8 6 5 7 8 7 5 2 4 5 6 5 5 5 6 7 8 9 9 8 8 8 8 8 8 8 8 7 7 7 8 9 9 7 5 4 4 4 3
20 19 18 22 23 21 19 14 11 8 8 9 9 10 10 9 7 5 6 7 9 10 10 9 8 9 9 10 10 10 9 9 9 8 7 7 6 6 6 7 7 8 9 8 6 4 4 4 4
22 21 22 26 25 23 21 18 15 13 12 12 12 12 11 11 10 7 5 6 8 10 11 12 12 12 11 12 13 13 12 11 11 11 9 8 7 7 8 9 9 8 9 8 6 5 5 5 5
24 24 26 29 28 26 24 22 18 16 15 14 13 14 13 12 10 9 5 5 9 11 12 12 13 13 13 13 14 15 15 14 13 12 11 10 10 9 11 11 11 10 10 9 7 6 7 7 8
25 26 30 33 31 29 28 25 21 18 15 14 15 16 14 13 13 12 9 7 9 13 15 16 14 14 15 16 17 17 16 15 14 13 13 13 12 13 13 13 13 12 11 11 10 9 10 10 10
26 29 33 36 35 33 31 29 25 21 18 15 16 17 15 16 18 19 17 15 15 17 19 20 19 19 21 21 20 20 17 15 14 14 14 13 13 14 13 12 12 13 13 12 13 14 13 12 12
28 31 35 39 38 37 36 33 30 26 22 19 17 17 15 17 21 22 21 20 22 22 22 21 20 22 26 27 25 22 20 17 14 13 12 12 13 13 13 13 14 15 15 13 14 16 15 14 14
31 33 37 41 41 40 39 38 35 31 27 23 18 15 15 17 20 21 21 19 19 18 17 18 20 24 27 28 27 23 20 19 17 15 15 15 14 14 15 16 17 17 16 15 15 15 15 15 16
34 34 38 41 44 43 42 41 39 35 32 27 23 18 16 17 18 20 20 19 17 15 15 17 20 25 28 27 24 22 20 20 18 17 17 17 16 16 17 18 19 18 17 16 15 15 15 15 17
33 33 37 41 44 45 44 43 42 38 36 32 27 25 24 21 18 19 20 20 19 19 19 20 23 27 28 27 24 22 22 22 21 19 18 19 19 19 19 19 20 21 20 19 19 19 18 16 17
29 31 34 39 42 44 45 45 43 41 39 36 33 29 26 24 21 20 21 22 22 21 22 24 25 27 30 31 29 25 24 23 21 19 17 18 19 20 20 20 22 23 23 22 20 20 20 18 18
29 29 31 35 40 44 45 45 43 42 40 38 36 32 28 27 24 23 24 25 25 23 24 25 27 29 32 35 34 30 27 24 21 19 20 20 21 22 23 24 25 25 24 23 21 21 22 21 21
28 29 31 33 37 39 42 41 41 42 43 41 39 35 32 27 22 21 23 25 26 25 26 28 30 32 34 36 32 28 28 27 24 23 23 23 24 25 26 27 27 26 24 23 24 25 26 24 23
28 29 30 32 34 35 36 35 35 36 38 38 36 33 31 29 27 24 25 27 26 26 28 30 32 33 34 35 32 31 31 31 30 27 26 26 28 29 28 29 28 26 25 25 26 28 28 26 23
28 28 29 31 31 32 31 31 31 32 33 35 34 34 34 34 32 30 29 29 29 29 31 32 33 33 36 38 39 37 36 35 34 31 31 32 32 31 30 30 28 28 28 28 28 29 27 24 21
30 29 29 30 31 31 31 32 31 32 33 33 33 32 33 32 31 30 30 29 30 31 33 35 35 36 37 39 42 42 41 41 39 38 36 36 35 34 31 30 28 27 28 28 28 27 26 24 23
34 33 33 32 32 33 33 36 37 36 36 35 32 30 30 29 29 28 27 29 30 32 35 38 41 42 42 42 44 47 47 47 47 45 41 38 36 33 30 28 27 27 28 28 28 27 26 26 26
35 37 38 38 38 38 37 39 40 40 40 39 36 33 30 29 29 28 29 31 33 33 35 40 45 48 49 49 49 49 49 49 49 46 43 38 32 28 27 27 28 29 29 29 28 28 28 29 29
37 39 40 40 41 43 41 42 44 44 43 41 40 37 33 32 32 33 35 36 37 36 36 39 44 48 51 52 48 50 51 49 47 44 41 37 34 30 29 29 30 31 31 31 32 32 33 33 31
35 35 35 36 36 38 38 40 43 42 43 42 41 39 36 34 34 36 37 39 40 41 41 40 42 45 46 47 46 44 49 50 45 38 35 35 35 34 32 33 33 34 34 35 36 36 35 34 33
31 31 31 32 32 32 32 35 36 36 37 37 38 37 37 36 36 36 37 39 40 41 41 40 38 38 38 36 33 30 32 38 38 35 33 33 35 35 34 35 36 37 38 38 38 38 36 34 34
27 28 29 30 31 32 33 33 34 32 32 33 33 33 34 34 34 35 34 33 33 34 34 34 34 33 30 26 26 25 23 21 23 25 28 32 35 36 37 38 38 38 38 38 38 38 37 34 33
21 22 24 27 28 29 31 31 32 32 33 32 31 31 31 30 30 29 28 27 27 27 27 25 23 22 21 21 21 21 19 18 20 24 27 30 31 32 33 33 34 34 34 35 35 36 35 34 33
23 23 24 24 24 26 29 29 27 28 28 28 28 29 29 28 27 26 26 26 25 25 23 19 17 16 17 17 18 18 19 20 22 24 25 26 27 28 29 29 29 30 31 33 34 34 33 33 33
29 28 27 27 26 27 27 28 27 28 26 25 25 25 25 26 25 24 25 25 24 22 20 17 15 16 18 19 20 22 22 23 24 26 27 28 28 28 29 29 29 29 29 30 30 30 31 31 31
Wind_Direction
207 203 200 200 205 222 240 249 229 197 166 175 170 154 137 132 125 116 106 86 75 73 72 73 76 79 80 80 81 82 82 80 79 76 72 67 61 55 53 53 55 59 65 68 67 61 54 50 47
208 205 204 202 208 223 237 245 241 219 180 179 178 174 159 142 134 121 111 90 72 65 68 68 68 70 72 73 73 72 72 73 72 70 66 65 62 55 50 49 50 54 61 67 68 66 63 61 56
212 207 205 203 209 222 232 241 245 236 207 189 182 184 174 152 138 130 118 98 77 54 55 61 63 66 68 68 68 66 65 64 64 63 60 56 55 53 49 45 43 44 50 56 59 60 60 65 68
216 211 206 205 210 219 229 236 246 245 230 209 197 191 181 165 148 144 130 114 92 58 49 59 57 61 63 64 64 62 61 59 57 57 56 53 49 46 44 43 41 39 40 44 46 45 41 47 53
219 216 210 204 210 219 226 233 240 226 214 214 218 215 196 179 166 173 182 201 226 30 31 43 44 45 47 47 49 50 47 46 48 49 49 51 50 48 46 40 36 36 36 32 35 43 35 33 38
221 220 215 207 212 217 222 226 215 193 181 193 224 234 229 208 188 213 277 289 295 304 319 342 359 11 20 19 17 21 19 17 25 34 36 38 39 38 36 30 23 21 22 18 12 27 31 22 9
223 220 214 216 219 217 217 216 208 208 206 211 225 235 238 241 240 259 286 298 306 314 321 327 330 335 346 349 345 342 340 338 340 349 3 9 2 354 353 357 2 3 2 359 355 357 0 354 337
226 222 216 222 225 221 223 221 218 223 222 227 227 217 220 233 237 247 268 295 309 317 321 321 320 321 327 331 330 326 322 319 317 319 326 332 330 324 322 326 334 344 345 340 335 333 329 321 313
227 222 217 226 229 227 230 229 227 227 226 226 212 201 203 220 232 239 250 293 308 313 316 316 314 319 325 328 327 321 315 310 306 302 304 307 309 310 308 311 316 322 326 325 316 313 311 307 306
227 220 217 229 234 233 235 236 234 229 223 217 211 209 216 231 241 246 255 285 308 307 301 299 303 315 323 328 328 321 311 304 300 292 286 291 299 303 305 307 309 308 311 316 311 305 305 303 303
226 219 219 229 236 237 238 241 240 236 230 221 216 220 235 247 250 256 265 278 294 299 295 287 288 302 315 321 324 324 314 302 295 287 280 281 289 298 303 307 306 304 305 308 307 303 305 307 310
225 217 218 228 236 239 241 244 246 245 241 233 223 225 237 247 251 255 263 277 287 287 284 277 279 294 305 310 314 318 316 304 293 286 281 282 288 293 298 301 301 299 299 299 299 300 303 306 310
224 217 218 227 235 240 245 247 249 252 253 252 248 238 240 246 247 252 260 272 278 277 271 266 273 285 294 299 301 303 305 299 287 278 278 283 284 287 292 297 296 293 293 294 296 299 305 305 305
223 220 220 226 233 239 244 248 252 255 259 260 260 258 258 254 253 256 261 259 258 260 260 257 268 280 286 288 289 290 291 289 284 282 283 286 288 293 296 299 298 294 292 289 288 292 301 303 304
225 222 222 225 231 236 242 247 251 255 260 262 263 264 264 261 258 255 250 245 247 253 256 260 269 278 282 280 280 283 285 282 280 282 286 290 292 296 298 297 296 296 294 291 290 292 296 298 299
227 224 223 226 230 235 241 245 250 255 260 263 265 266 264 262 260 253 244 243 249 255 260 265 269 273 276 276 276 277 279 279 278 279 281 285 289 291 290 287 287 288 290 290 289 290 290 294 296
225 223 223 227 230 235 240 245 250 255 259 262 264 268 268 267 261 247 240 243 249 255 259 261 263 266 270 272 274 271 271 272 273 272 274 279 283 283 281 280 281 284 285 286 287 288 290 291 292
229 227 226 228 232 237 243 247 250 255 258 260 263 267 269 266 256 243 241 244 248 251 250 252 256 260 264 269 270 264 264 267 271 272 271 278 284 283 279 277 278 279 280 280 284 287 288 289 290
233 233 233 234 236 241 246 250 252 254 255 257 259 260 260 258 254 249 244 242 242 242 241 245 250 253 258 264 263 259 259 263 269 272 271 275 280 281 279 278 278 278 279 281 284 287 287 288 288
240 240 241 241 240 241 243 247 251 252 253 254 256 256 257 259 259 254 248 242 241 241 238 240 244 248 254 260 262 258 258 260 264 271 275 276 276 277 275 274 274 277 280 283 286 287 287 287 288
243 243 243 245 245 245 244 243 246 251 254 256 257 258 258 260 262 264 258 247 244 243 242 243 245 246 250 257 261 260 259 260 263 267 274 278 278 272 269 270 272 275 279 282 285 287 286 286 289
247 246 245 245 246 249 250 253 249 252 255 257 257 256 255 255 258 262 257 252 252 249 249 248 248 247 249 253 259 260 260 259 261 264 269 275 276 268 263 268 271 272 275 279 283 286 287 288 290
249 249 249 248 249 251 253 257 259 260 260 259 259 257 254 252 255 259 259 258 258 257 256 254 252 251 250 252 254 256 258 258 260 260 263 269 267 262 263 267 269 269 271 276 280 282 284 287 289
245 249 251 252 252 253 254 257 261 262 264 263 262 259 255 253 255 258 258 259 259 258 257 256 255 254 254 254 255 255 255 257 259 258 258 261 263 265 266 267 267 267 270 275 278 279 281 282 284
244 249 253 256 256 257 255 255 257 258 259 260 262 262 260 258 260 261 261 261 262 261 259 260 261 260 259 260 257 260 256 254 253 247 254 262 262 264 265 265 265 267 271 275 278 279 278 277 277
246 250 256 259 258 256 252 252 255 256 255 255 256 258 260 261 262 264 266 267 267 265 263 266 269 266 264 268 264 271 264 252 246 247 256 261 262 262 262 263 264 268 273 277 279 279 277 275 273
250 253 257 261 262 258 254 252 253 254 254 254 254 255 256 257 258 262 264 264 266 268 270 274 276 274 273 275 269 271 272 266 256 255 255 256 258 260 262 263 266 270 274 277 279 278 277 275 272
257 255 253 257 262 262 261 257 256 255 255 256 256 255 254 255 257 256 255 259 265 272 274 272 269 268 270 272 270 268 267 260 256 254 255 256 260 264 267 268 269 271 273 273 273 273 275 275 273
266 266 266 263 261 261 262 261 258 258 258 258 256 253 252 253 254 252 252 260 270 274 272 268 264 261 262 264 265 261 256 254 254 258 261 264 265 267 268 269 269 270 270 270 269 269 271 272 270
269 271 268 264 259 258 258 263 261 261 261 258 255 252 252 253 256 257 260 265 267 264 259 255 252 256 264 269 269 265 262 261 260 261 263 264 266 267 268 267 267 268 270 271 269 268 269 268 265
Height
5898 5901 5903 5905 5905 5903 5901 5902 5904 5906 5909 5911 5912 5912 5912 5913 5915 5918 5917 5915 5916 5917 5917 5916 5915 5914 5913 5912 5912 5913 5914 5915 5915 5915 5914 5914 5913 5913 5913 5912 5911 5910 5910 5909 5909 5908 5908 5907 5907
5898 5900 5903 5904 5904 5902 5902 5903 5904 5907 5910 5912 5914 5915 5914 5914 5916 5917 5917 5917 5919 5919 5919 5919 5918 5917 5916 5915 5915 5915 5916 5917 5917 5917 5917 5916 5915 5915 5914 5913 5912 5912 5911 5910 5909 5909 5908 5908 5907
5897 5899 5902 5903 5902 5902 5904 5904 5904 5907 5910 5912 5915 5916 5917 5917 5918 5919 5919 5919 5921 5921 5921 5921 5921 5920 5919 5918 5918 5918 5918 5918 5919 5918 5918 5918 5917 5916 5915 5914 5913 5913 5912 5911 5910 5909 5908 5908 5907
5897 5899 5901 5903 5902 5903 5904 5904 5905 5907 5909 5912 5915 5917 5919 5920 5920 5921 5922 5922 5923 5923 5923 5923 5923 5922 5921 5920 5920 5920 5921 5920 5920 5919 5918 5918 5917 5917 5916 5915 5914 5913 5913 5913 5912 5911 5910 5908 5908
5897 5898 5900 5900 5902 5903 5903 5905 5906 5907 5909 5912 5915 5918 5920 5921 5921 5923 5924 5925 5925 5925 5925 5925 5925 5924 5922 5922 5922 5922 5923 5922 5922 5921 5920 5919 5918 5918 5916 5915 5914 5913 5913 5913 5912 5912 5910 5909 5908
5895 5897 5899 5899 5900 5902 5904 5906 5908 5909 5910 5913 5916 5919 5921 5922 5922 5923 5925 5927 5927 5927 5926 5927 5927 5925 5923 5923 5924 5923 5923 5924 5923 5922 5922 5921 5920 5919 5917 5916 5914 5913 5912 5912 5911 5911 5910 5909 5908
5893 5894 5896 5897 5899 5901 5904 5906 5908 5909 5911 5913 5916 5918 5920 5922 5923 5924 5925 5927 5927 5927 5927 5927 5927 5927 5925 5924 5925 5924 5923 5923 5924 5923 5922 5921 5920 5920 5918 5916 5915 5914 5913 5912 5911 5911 5911 5909 5908
5890 5892 5892 5893 5896 5900 5903 5905 5908 5909 5911 5913 5914 5916 5918 5921 5922 5923 5924 5925 5925 5925 5926 5927 5927 5926 5925 5924 5924 5924 5923 5922 5922 5922 5922 5920 5919 5919 5918 5917 5915 5913 5912 5911 5911 5910 5909 5909 5907
5887 5890 5889 5889 5893 5898 5901 5904 5907 5910 5911 5912 5913 5915 5917 5919 5920 5921 5922 5922 5923 5924 5924 5925 5925 5925 5924 5923 5923 5923 5922 5921 5920 5920 5920 5919 5918 5917 5916 5915 5914 5913 5911 5910 5910 5909 5908 5907 5906
5883 5886 5886 5885 5889 5893 5897 5901 5905 5909 5910 5911 5913 5914 5915 5916 5917 5919 5920 5921 5922 5922 5923 5923 5923 5923 5922 5922 5921 5921 5921 5920 5918 5918 5918 5917 5916 5915 5914 5913 5913 5911 5910 5909 5909 5908 5907 5906 5905
5879 5881 5881 5881 5885 5888 5892 5896 5901 5906 5909 5910 5912 5913 5914 5915 5916 5918 5918 5919 5920 5920 5920 5920 5920 5920 5919 5919 5918 5919 5918 5917 5916 5915 5915 5914 5914 5913 5912 5910 5910 5909 5908 5906 5906 5906 5905 5905 5903
5874 5876 5877 5877 5880 5883 5887 5891 5895 5901 5906 5908 5910 5911 5912 5913 5915 5916 5917 5917 5917 5917 5917 5917 5917 5917 5916 5915 5915 5915 5915 5914 5913 5912 5912 5911 5911 5910 5910 5908 5908 5908 5906 5904 5904 5904 5903 5902 5900
5868 5871 5872 5872 5874 5878 5882 5885 5890 5895 5900 5903 5906 5909 5910 5911 5912 5913 5914 5914 5914 5913 5913 5913 5913 5913 5913 5912 5911 5911 5911 5911 5910 5910 5909 5909 5908 5907 5907 5906 5905 5904 5903 5901 5900 5901 5900 5899 5898
5862 5865 5868 5869 5869 5872 5876 5879 5883 5888 5892 5897 5901 5905 5907 5908 5909 5910 5910 5911 5910 5909 5909 5909 5909 5909 5909 5908 5908 5907 5907 5907 5907 5907 5906 5905 5905 5904 5904 5903 5902 5901 5900 5899 5898 5898 5897 5896 5895
5858 5861 5863 5864 5865 5867 5870 5873 5877 5882 5885 5890 5895 5899 5902 5904 5905 5905 5905 5905 5905 5905 5904 5904 5905 5905 5904 5904 5904 5903 5904 5903 5903 5903 5903 5902 5902 5901 5900 5900 5898 5897 5896 5895 5894 5894 5893 5892 5891
5853 5856 5858 5860 5861 5862 5866 5868 5873 5876 5880 5884 5888 5891 5895 5897 5899 5900 5900 5899 5899 5899 5899 5899 5900 5900 5899 5898 5898 5899 5899 5898 5898 5898 5898 5898 5897 5896 5896 5896 5895 5894 5892 5891 5890 5890 5889 5888 5887
5846 5849 5852 5854 5855 5856 5859 5863 5868 5870 5873 5877 5880 5884 5887 5890 5892 5893 5893 5893 5893 5893 5893 5893 5893 5893 5892 5891 5891 5892 5893 5893 5892 5892 5892 5892 5892 5892 5892 5891 5891 5890 5888 5887 5886 5886 5885 5884 5882
5842 5844 5846 5848 5849 5852 5854 5858 5863 5865 5867 5869 5873 5876 5879 5881 5883 5886 5887 5887 5887 5887 5887 5887 5886 5885 5884 5883 5884 5884 5885 5885 5885 5886 5885 5886 5887 5887 5887 5886 5886 5885 5884 5883 5882 5882 5881 5880 5879
5837 5839 5841 5843 5845 5848 5850 5853 5856 5857 5858 5861 5865 5868 5870 5871 5874 5877 5878 5879 5879 5880 5880 5880 5879 5877 5876 5875 5876 5877 5877 5876 5877 5878 5879 5880 5881 5881 5880 5880 5880 5879 5879 5878 5878 5877 5876 5875 5874
5832 5835 5837 5838 5840 5842 5844 5847 5848 5849 5851 5853 5856 5859 5861 5862 5865 5867 5869 5870 5872 5872 5872 5871 5870 5870 5869 5868 5867 5868 5868 5868 5869 5870 5871 5872 5873 5873 5873 5873 5873 5872 5872 5872 5872 5871 5871 5870 5869
5826 5829 5832 5833 5834 5835 5838 5840 5841 5842 5844 5847 5850 5853 5854 5855 5857 5859 5861 5862 5863 5864 5864 5863 5862 5861 5861 5860 5858 5858 5858 5859 5861 5862 5863 5864 5865 5866 5866 5866 5867 5867 5866 5866 5865 5865 5864 5864 5863
5820 5822 5824 5826 5827 5828 5831 5831 5834 5836 5837 5839 5842 5845 5846 5848 5849 5850 5852 5853 5854 5855 5855 5854 5853 5852 5851 5850 5849 5847 5848 5849 5851 5853 5854 5855 5855 5856 5858 5858 5859 5860 5860 5859 5859 5859 5858 5858 5857
5812 5814 5817 5819 5820 5821 5822 5823 5826 5827 5830 5832 5834 5835 5838 5839 5840 5841 5842 5842 5843 5844 5844 5844 5844 5842 5841 5839 5837 5835 5835 5837 5840 5843 5845 5847 5848 5849 5850 5851 5852 5853 5853 5853 5853 5853 5852 5851 5850
5803 5805 5807 5810 5812 5814 5817 5816 5816 5818 5819 5821 5824 5825 5828 5829 5830 5830 5830 5830 5831 5831 5831 5831 5831 5831 5830 5828 5825 5823 5825 5828 5831 5833 5835 5838 5841 5842 5843 5844 5844 5845 5845 5846 5846 5846 5846 5845 5844
5795 5798 5800 5800 5802 5805 5807 5807 5807 5809 5810 5812 5814 5815 5817 5819 5820 5821 5821 5821 5821 5820 5820 5821 5821 5821 5820 5818 5816 5815 5817 5820 5823 5824 5826 5829 5832 5834 5836 5836 5836 5836 5837 5837 5837 5837 5838 5838 5837
5789 5791 5793 5793 5793 5795 5797 5797 5799 5801 5802 5803 5805 5807 5809 5810 5812 5812 5813 5813 5813 5812 5812 5812 5811 5811 5811 5810 5810 5811 5811 5813 5816 5817 5818 5821 5824 5826 5827 5828 5828 5828 5828 5829 5828 5828 5828 5829 5829
5782 5783 5785 5785 5784 5786 5788 5790 5791 5793 5794 5796 5798 5799 5801 5802 5804 5804 5804 5804 5804 5804 5804 5804 5803 5803 5803 5803 5804 5805 5806 5807 5810 5811 5812 5814 5816 5817 5818 5819 5820 5820 5820 5819 5819 5819 5820 5820 5820
5777 5777 5778 5778 5778 5778 5780 5781 5783 5785 5786 5788 5790 5791 5792 5794 5796 5796 5796 5796 5796 5796 5795 5795 5795 5795 5795 5796 5798 5798 5799 5801 5803 5804 5805 5806 5808 5809 5810 5810 5810 5811 5810 5810 5810 5810 5810 5811 5811
5770 5771 5770 5770 5771 5772 5772 5775 5776 5777 5778 5780 5782 5783 5784 5785 5787 5788 5788 5789 5788 5788 5788 5787 5787 5788 5789 5790 5791 5792 5794 5795 5796 5797 5798 5799 5799 5801 5801 5802 5802 5802 5802 5802 5802 5802 5802 5802 5802
5762 5763 5763 5764 5764 5764 5764 5768 5767 5768 5770 5772 5774 5775 5776 5777 5778 5779 5781 5781 5782 5781 5781 5781 5781 5782 5783 5784 5785 5786 5786 5787 5788 5788 5789 5790 5791 5792 5793 5794 5794 5794 5794 5794 5794 5794 5794 5793 5793